Time,TemperatureF,DewpointF,PressureIn,WindDirection,WindDirectionDegrees,WindSpeedMPH,WindSpeedGustMPH,Humidity,HourlyPrecipIn,Conditions,Clouds,dailyrainin,SolarRadiationWatts/m^2,SoftwareType,DateUTC
2013-05-03 00:01:00,53.1,46.0,30.39,ENE,65,0.0,1.0,77,0.00,,,0.00,0.0,meteohub,2013-05-03 07:01:00,
2013-05-03 00:06:00,52.9,45.9,30.39,ENE,65,0.0,1.0,77,0.00,,,0.00,0.0,meteohub,2013-05-03 07:06:00,
2013-05-03 00:11:00,52.9,45.9,30.39,ENE,65,0.0,1.0,77,0.00,,,0.00,0.0,meteohub,2013-05-03 07:11:00,
2013-05-03 00:16:00,52.9,46.2,30.39,ENE,65,0.0,0.0,78,0.00,,,0.00,0.0,meteohub,2013-05-03 07:16:00,
2013-05-03 00:21:00,52.5,45.9,30.39,ENE,65,0.0,0.0,78,0.00,,,0.00,0.0,meteohub,2013-05-03 07:21:00,
2013-05-03 00:26:00,52.5,46.2,30.39,ENE,65,1.0,0.0,79,0.00,,,0.00,0.0,meteohub,2013-05-03 07:26:00,
2013-05-03 00:31:00,52.2,45.9,30.39,ENE,65,0.0,1.0,79,0.00,,,0.00,0.0,meteohub,2013-05-03 07:31:00,
2013-05-03 00:36:00,52.0,46.4,30.38,ENE,65,0.0,1.0,81,0.00,,,0.00,0.0,meteohub,2013-05-03 07:36:00,
2013-05-03 00:41:00,51.6,45.7,30.39,ENE,65,0.0,1.0,80,0.00,,,0.00,0.0,meteohub,2013-05-03 07:41:00,
2013-05-03 00:46:00,51.3,45.7,30.39,ENE,65,0.0,2.0,81,0.00,,,0.00,0.0,meteohub,2013-05-03 07:46:00,
2013-05-03 00:51:00,51.1,45.5,30.39,ENE,65,0.0,2.0,81,0.00,,,0.00,0.0,meteohub,2013-05-03 07:51:00,
2013-05-03 00:57:00,50.7,45.5,30.39,ENE,65,0.0,2.0,82,0.00,,,0.00,0.0,meteohub,2013-05-03 07:57:00,
2013-05-03 01:02:00,50.5,45.0,30.39,ENE,65,0.0,2.0,81,0.00,,,0.00,0.0,meteohub,2013-05-03 08:02:00,
2013-05-03 01:07:00,50.4,44.8,30.39,ENE,65,0.0,1.0,81,0.00,,,0.00,0.0,meteohub,2013-05-03 08:07:00,
2013-05-03 01:12:00,49.8,44.2,30.39,ENE,65,0.0,1.0,81,0.00,,,0.00,0.0,meteohub,2013-05-03 08:12:00,
2013-05-03 01:17:00,49.8,44.2,30.39,ENE,65,0.0,1.0,81,0.00,,,0.00,0.0,meteohub,2013-05-03 08:17:00,
2013-05-03 01:22:00,49.5,43.9,30.40,ENE,65,0.0,1.0,81,0.00,,,0.00,0.0,meteohub,2013-05-03 08:22:00,
2013-05-03 01:27:00,49.3,44.1,30.40,ENE,65,2.0,2.0,82,0.00,,,0.00,0.0,meteohub,2013-05-03 08:27:00,
2013-05-03 01:32:00,48.6,43.7,30.40,ENE,65,0.0,2.0,83,0.00,,,0.00,0.0,meteohub,2013-05-03 08:32:00,
2013-05-03 01:37:00,48.2,43.9,30.40,ENE,65,0.0,2.0,85,0.00,,,0.00,0.0,meteohub,2013-05-03 08:37:00,
2013-05-03 01:42:00,48.0,43.7,30.40,ENE,65,0.0,2.0,85,0.00,,,0.00,0.0,meteohub,2013-05-03 08:42:00,
2013-05-03 01:47:00,47.8,43.5,30.40,ENE,65,1.0,2.0,85,0.00,,,0.00,0.0,meteohub,2013-05-03 08:47:00,
2013-05-03 01:52:00,47.7,43.3,30.41,ENE,65,1.0,2.0,85,0.00,,,0.00,0.0,meteohub,2013-05-03 08:52:00,
2013-05-03 01:57:00,47.7,43.3,30.41,ENE,65,0.0,2.0,85,0.00,,,0.00,0.0,meteohub,2013-05-03 08:57:00,
2013-05-03 02:02:00,47.3,43.0,30.41,ENE,65,0.0,2.0,85,0.00,,,0.00,0.0,meteohub,2013-05-03 09:02:00,
2013-05-03 02:07:00,47.1,42.8,30.41,ENE,65,0.0,1.0,85,0.00,,,0.00,0.0,meteohub,2013-05-03 09:07:00,
2013-05-03 02:12:00,46.8,43.2,30.41,ENE,65,0.0,1.0,87,0.00,,,0.00,0.0,meteohub,2013-05-03 09:12:00,
2013-05-03 02:17:00,46.6,43.0,30.41,ENE,65,0.0,1.0,87,0.00,,,0.00,0.0,meteohub,2013-05-03 09:17:00,
2013-05-03 02:22:00,46.4,42.8,30.41,ENE,65,0.0,1.0,87,0.00,,,0.00,0.0,meteohub,2013-05-03 09:22:00,
2013-05-03 02:27:00,46.0,42.4,30.41,ENE,65,0.0,1.0,87,0.00,,,0.00,0.0,meteohub,2013-05-03 09:27:00,
2013-05-03 02:32:00,46.0,42.4,30.41,ENE,65,0.0,2.0,87,0.00,,,0.00,0.0,meteohub,2013-05-03 09:32:00,
2013-05-03 02:37:00,45.9,42.3,30.41,ENE,65,0.0,2.0,87,0.00,,,0.00,0.0,meteohub,2013-05-03 09:37:00,
2013-05-03 02:42:00,45.7,42.1,30.42,ENE,65,1.0,1.0,87,0.00,,,0.00,0.0,meteohub,2013-05-03 09:42:00,
2013-05-03 02:47:00,45.5,42.1,30.41,ENE,65,0.0,2.0,88,0.00,,,0.00,0.0,meteohub,2013-05-03 09:47:00,
2013-05-03 02:52:00,45.1,41.7,30.42,ENE,65,0.0,2.0,88,0.00,,,0.00,0.0,meteohub,2013-05-03 09:52:00,
2013-05-03 02:57:00,45.1,42.1,30.41,ENE,65,0.0,2.0,89,0.00,,,0.00,0.0,meteohub,2013-05-03 09:57:00,
2013-05-03 03:02:00,44.8,41.7,30.41,ENE,65,0.0,1.0,89,0.00,,,0.00,0.0,meteohub,2013-05-03 10:02:00,
2013-05-03 03:07:00,44.8,42.1,30.41,ENE,65,0.0,1.0,90,0.00,,,0.00,0.0,meteohub,2013-05-03 10:07:00,
2013-05-03 03:12:00,44.6,41.9,30.41,ENE,65,0.0,1.0,90,0.00,,,0.00,0.0,meteohub,2013-05-03 10:12:00,
2013-05-03 03:17:00,44.4,41.7,30.41,ENE,65,0.0,3.0,90,0.00,,,0.00,0.0,meteohub,2013-05-03 10:17:00,
2013-05-03 03:22:00,44.2,41.5,30.41,ENE,65,0.0,3.0,90,0.00,,,0.00,0.0,meteohub,2013-05-03 10:22:00,
2013-05-03 03:27:00,44.2,41.5,30.41,ENE,65,0.0,3.0,90,0.00,,,0.00,0.0,meteohub,2013-05-03 10:27:00,
2013-05-03 03:32:00,44.2,41.7,30.41,ENE,65,0.0,1.0,91,0.00,,,0.00,0.0,meteohub,2013-05-03 10:32:00,
2013-05-03 03:37:00,44.1,41.5,30.41,ENE,65,1.0,2.0,91,0.00,,,0.00,0.0,meteohub,2013-05-03 10:37:00,
2013-05-03 03:42:00,43.9,41.4,30.41,ENE,65,1.0,2.0,91,0.00,,,0.00,0.0,meteohub,2013-05-03 10:42:00,
2013-05-03 03:47:00,43.5,41.0,30.41,ENE,65,0.0,3.0,91,0.00,,,0.00,0.0,meteohub,2013-05-03 10:47:00,
2013-05-03 03:52:00,43.5,41.4,30.41,ENE,65,0.0,3.0,92,0.00,,,0.00,0.0,meteohub,2013-05-03 10:52:00,
2013-05-03 03:57:00,43.3,41.2,30.41,ENE,65,0.0,3.0,92,0.00,,,0.00,0.0,meteohub,2013-05-03 10:57:00,
2013-05-03 04:02:00,43.2,41.0,30.41,ENE,65,0.0,3.0,92,0.00,,,0.00,0.0,meteohub,2013-05-03 11:02:00,
2013-05-03 04:07:00,43.2,41.0,30.42,ENE,65,0.0,2.0,92,0.00,,,0.00,0.0,meteohub,2013-05-03 11:07:00,
2013-05-03 04:12:00,43.2,41.0,30.42,ENE,65,0.0,1.0,92,0.00,,,0.00,0.0,meteohub,2013-05-03 11:12:00,
2013-05-03 04:17:00,43.0,40.8,30.42,ENE,65,0.0,1.0,92,0.00,,,0.00,0.0,meteohub,2013-05-03 11:17:00,
2013-05-03 04:22:00,43.0,40.8,30.42,ENE,65,0.0,2.0,92,0.00,,,0.00,0.0,meteohub,2013-05-03 11:22:00,
2013-05-03 04:27:00,42.8,41.0,30.42,ENE,65,0.0,2.0,93,0.00,,,0.00,0.0,meteohub,2013-05-03 11:27:00,
2013-05-03 04:32:00,42.8,41.0,30.42,ENE,65,0.0,2.0,93,0.00,,,0.00,0.0,meteohub,2013-05-03 11:32:00,
2013-05-03 04:37:00,42.6,40.8,30.42,ENE,65,0.0,2.0,93,0.00,,,0.00,0.0,meteohub,2013-05-03 11:37:00,
2013-05-03 04:42:00,42.4,40.6,30.42,ENE,65,2.0,3.0,93,0.00,,,0.00,0.0,meteohub,2013-05-03 11:42:00,
2013-05-03 04:47:00,42.4,40.6,30.41,ENE,65,2.0,3.0,93,0.00,,,0.00,0.0,meteohub,2013-05-03 11:47:00,
2013-05-03 04:52:00,42.3,40.6,30.41,ENE,65,1.0,3.0,94,0.00,,,0.00,0.0,meteohub,2013-05-03 11:52:00,
2013-05-03 04:57:00,42.3,40.6,30.41,ENE,65,1.0,4.0,94,0.00,,,0.00,0.0,meteohub,2013-05-03 11:57:00,
2013-05-03 05:02:00,42.3,40.6,30.41,ENE,65,0.0,4.0,94,0.00,,,0.00,0.0,meteohub,2013-05-03 12:02:00,
2013-05-03 05:07:00,42.3,40.5,30.41,NW,305,1.0,4.0,93,0.00,,,0.00,0.0,meteohub,2013-05-03 12:07:00,
2013-05-03 05:12:00,42.3,40.6,30.40,WNW,292,0.0,7.0,94,0.00,,,0.00,0.0,meteohub,2013-05-03 12:12:00,
2013-05-03 05:17:00,42.3,40.6,30.40,WNW,294,2.0,7.0,94,0.00,,,0.00,0.0,meteohub,2013-05-03 12:17:00,
2013-05-03 05:22:00,42.3,40.6,30.40,WNW,291,3.0,7.0,94,0.00,,,0.00,0.0,meteohub,2013-05-03 12:22:00,
2013-05-03 05:27:00,42.3,40.6,30.40,WNW,295,0.0,6.0,94,0.00,,,0.00,0.0,meteohub,2013-05-03 12:27:00,
2013-05-03 05:32:00,42.3,40.5,30.40,WNW,288,2.0,6.0,93,0.00,,,0.00,0.0,meteohub,2013-05-03 12:32:00,
2013-05-03 05:37:00,42.3,40.5,30.40,West,277,0.0,8.0,93,0.00,,,0.00,0.0,meteohub,2013-05-03 12:37:00,
2013-05-03 05:42:00,42.3,40.5,30.40,West,277,0.0,8.0,93,0.00,,,0.00,0.0,meteohub,2013-05-03 12:42:00,
2013-05-03 05:47:00,42.3,40.5,30.41,WSW,254,4.0,8.0,93,0.00,,,0.00,0.0,meteohub,2013-05-03 12:47:00,
2013-05-03 05:52:00,43.0,41.2,30.40,SSE,161,4.0,6.0,93,0.00,,,0.00,5.0,meteohub,2013-05-03 12:52:00,
2013-05-03 05:57:00,45.1,41.2,30.40,East,90,6.0,9.0,86,0.00,,,0.00,7.0,meteohub,2013-05-03 12:57:00,
2013-05-03 06:02:00,46.0,41.2,30.41,WNW,289,3.0,14.0,83,0.00,,,0.00,9.0,meteohub,2013-05-03 13:02:00,
2013-05-03 06:07:00,46.8,41.9,30.40,North,355,4.0,14.0,83,0.00,,,0.00,11.0,meteohub,2013-05-03 13:07:00,
2013-05-03 06:12:00,49.5,41.5,30.41,East,84,2.0,14.0,74,0.00,,,0.00,12.0,meteohub,2013-05-03 13:12:00,
2013-05-03 06:17:00,51.3,41.9,30.41,East,101,7.0,21.0,70,0.00,,,0.00,12.0,meteohub,2013-05-03 13:17:00,
2013-05-03 06:22:00,51.6,41.4,30.40,ESE,103,6.0,21.0,68,0.00,,,0.00,14.0,meteohub,2013-05-03 13:22:00,
2013-05-03 06:27:00,52.2,41.5,30.40,ESE,107,16.0,19.0,67,0.00,,,0.00,16.0,meteohub,2013-05-03 13:27:00,
2013-05-03 06:32:00,52.3,41.4,30.40,SE,126,19.0,23.0,66,0.00,,,0.00,16.0,meteohub,2013-05-03 13:32:00,
2013-05-03 06:37:00,52.9,41.4,30.40,East,98,14.0,29.0,65,0.00,,,0.00,18.0,meteohub,2013-05-03 13:37:00,
2013-05-03 06:42:00,52.9,41.4,30.40,ESE,110,19.0,29.0,65,0.00,,,0.00,19.0,meteohub,2013-05-03 13:42:00,
2013-05-03 06:47:00,52.9,41.4,30.40,ESE,104,13.0,29.0,65,0.00,,,0.00,19.0,meteohub,2013-05-03 13:47:00,
2013-05-03 06:52:00,52.9,41.4,30.40,East,88,17.0,29.0,65,0.00,,,0.00,21.0,meteohub,2013-05-03 13:52:00,
2013-05-03 06:57:00,52.9,41.4,30.40,SE,131,13.0,27.0,65,0.00,,,0.00,21.0,meteohub,2013-05-03 13:57:00,
2013-05-03 07:02:00,52.9,41.4,30.40,East,92,17.0,27.0,65,0.00,,,0.00,21.0,meteohub,2013-05-03 14:02:00,
2013-05-03 07:07:00,52.9,41.4,30.40,ESE,112,14.0,27.0,65,0.00,,,0.00,23.0,meteohub,2013-05-03 14:07:00,
2013-05-03 07:12:00,52.9,41.4,30.39,ESE,102,17.0,27.0,65,0.00,,,0.00,23.0,meteohub,2013-05-03 14:12:00,
2013-05-03 07:17:00,52.9,41.4,30.39,SE,132,17.0,29.0,65,0.00,,,0.00,25.0,meteohub,2013-05-03 14:17:00,
2013-05-03 07:22:00,52.9,41.4,30.40,ESE,115,21.0,33.0,65,0.00,,,0.00,25.0,meteohub,2013-05-03 14:22:00,
2013-05-03 07:27:00,52.9,41.4,30.39,SE,130,26.0,33.0,65,0.00,,,0.00,26.0,meteohub,2013-05-03 14:27:00,
2013-05-03 07:32:00,52.9,41.4,30.39,East,81,19.0,33.0,65,0.00,,,0.00,26.0,meteohub,2013-05-03 14:32:00,
2013-05-03 07:37:00,52.9,41.0,30.38,SE,130,19.0,31.0,64,0.00,,,0.00,28.0,meteohub,2013-05-03 14:37:00,
2013-05-03 07:42:00,53.1,41.5,30.39,SE,133,24.0,31.0,65,0.00,,,0.00,30.0,meteohub,2013-05-03 14:42:00,
2013-05-03 07:47:00,53.1,41.2,30.39,East,84,17.0,31.0,64,0.00,,,0.00,30.0,meteohub,2013-05-03 14:47:00,
2013-05-03 07:52:00,53.2,41.4,30.38,ESE,113,28.0,33.0,64,0.00,,,0.00,32.0,meteohub,2013-05-03 14:52:00,
2013-05-03 07:57:00,53.2,41.0,30.39,ESE,105,13.0,33.0,63,0.00,,,0.00,32.0,meteohub,2013-05-03 14:57:00,
2013-05-03 08:02:00,53.4,41.2,30.39,ENE,68,7.0,33.0,63,0.00,,,0.00,33.0,meteohub,2013-05-03 15:02:00,
2013-05-03 08:07:00,53.6,41.4,30.40,SE,125,16.0,33.0,63,0.00,,,0.00,35.0,meteohub,2013-05-03 15:07:00,
2013-05-03 08:12:00,53.6,40.8,30.38,East,101,21.0,31.0,62,0.00,,,0.00,37.0,meteohub,2013-05-03 15:12:00,
2013-05-03 08:17:00,53.8,41.5,30.38,ESE,106,14.0,31.0,63,0.00,,,0.00,39.0,meteohub,2013-05-03 15:17:00,
2013-05-03 08:22:00,54.1,41.4,30.38,ESE,119,28.0,32.0,62,0.00,,,0.00,51.0,meteohub,2013-05-03 15:22:00,
2013-05-03 08:27:00,54.5,41.4,30.39,ESE,117,20.0,32.0,61,0.00,,,0.00,366.0,meteohub,2013-05-03 15:27:00,
2013-05-03 08:32:00,54.7,41.5,30.38,ESE,102,24.0,32.0,61,0.00,,,0.00,56.0,meteohub,2013-05-03 15:32:00,
2013-05-03 08:37:00,55.4,41.4,30.38,East,92,10.0,35.0,59,0.00,,,0.00,397.0,meteohub,2013-05-03 15:37:00,
2013-05-03 08:42:00,55.4,41.7,30.39,ESE,118,14.0,35.0,60,0.00,,,0.00,448.0,meteohub,2013-05-03 15:42:00,
2013-05-03 08:47:00,55.8,41.7,30.38,ESE,112,25.0,35.0,59,0.00,,,0.00,461.0,meteohub,2013-05-03 15:47:00,
2013-05-03 08:52:00,55.9,41.4,30.38,ESE,103,24.0,33.0,58,0.00,,,0.00,490.0,meteohub,2013-05-03 15:52:00,
2013-05-03 08:57:00,56.3,41.7,30.38,ESE,117,29.0,30.0,58,0.00,,,0.00,490.0,meteohub,2013-05-03 15:57:00,
2013-05-03 09:02:00,56.7,42.1,30.38,ESE,113,18.0,36.0,58,0.00,,,0.00,506.0,meteohub,2013-05-03 16:02:00,
2013-05-03 09:07:00,56.8,41.7,30.38,ENE,71,16.0,36.0,57,0.00,,,0.00,522.0,meteohub,2013-05-03 16:07:00,
2013-05-03 09:12:00,57.2,42.1,30.38,ESE,109,15.0,29.0,57,0.00,,,0.00,527.0,meteohub,2013-05-03 16:12:00,
2013-05-03 09:17:00,57.4,41.9,30.37,ESE,109,20.0,29.0,56,0.00,,,0.00,540.0,meteohub,2013-05-03 16:17:00,
2013-05-03 09:22:00,57.6,41.9,30.37,ESE,113,21.0,32.0,56,0.00,,,0.00,550.0,meteohub,2013-05-03 16:22:00,
2013-05-03 09:27:00,57.7,41.7,30.37,ESE,109,18.0,32.0,55,0.00,,,0.00,547.0,meteohub,2013-05-03 16:27:00,
2013-05-03 09:32:00,58.1,42.1,30.37,ESE,110,16.0,32.0,55,0.00,,,0.00,591.0,meteohub,2013-05-03 16:32:00,
2013-05-03 09:37:00,58.5,42.8,30.37,East,96,17.0,30.0,56,0.00,,,0.00,592.0,meteohub,2013-05-03 16:37:00,
2013-05-03 09:42:00,58.6,42.1,30.37,East,80,12.0,30.0,54,0.00,,,0.00,599.0,meteohub,2013-05-03 16:42:00,
2013-05-03 09:47:00,59.0,41.9,30.37,East,87,20.0,28.0,53,0.00,,,0.00,605.0,meteohub,2013-05-03 16:47:00,
2013-05-03 09:52:00,59.4,42.3,30.37,East,80,13.0,28.0,53,0.00,,,0.00,619.0,meteohub,2013-05-03 16:52:00,
2013-05-03 09:57:00,59.9,41.7,30.36,ESE,119,15.0,28.0,51,0.00,,,0.00,628.0,meteohub,2013-05-03 16:57:00,
2013-05-03 10:02:00,60.1,42.4,30.36,ESE,119,8.0,30.0,52,0.00,,,0.00,642.0,meteohub,2013-05-03 17:02:00,
2013-05-03 10:07:00,60.4,42.8,30.36,ESE,117,7.0,30.0,52,0.00,,,0.00,652.0,meteohub,2013-05-03 17:07:00,
2013-05-03 10:12:00,61.0,42.8,30.36,East,91,13.0,28.0,51,0.00,,,0.00,613.0,meteohub,2013-05-03 17:12:00,
2013-05-03 10:17:00,61.2,42.4,30.36,SE,144,12.0,26.0,50,0.00,,,0.00,673.0,meteohub,2013-05-03 17:17:00,
2013-05-03 10:22:00,61.9,42.4,30.35,SE,124,13.0,23.0,49,0.00,,,0.00,686.0,meteohub,2013-05-03 17:22:00,
2013-05-03 10:27:00,62.2,42.3,30.35,SE,138,11.0,22.0,48,0.00,,,0.00,694.0,meteohub,2013-05-03 17:27:00,
2013-05-03 10:32:00,62.8,42.3,30.35,East,82,6.0,24.0,47,0.00,,,0.00,703.0,meteohub,2013-05-03 17:32:00,
2013-05-03 10:37:00,63.5,42.3,30.35,East,90,2.0,24.0,46,0.00,,,0.00,714.0,meteohub,2013-05-03 17:37:00,
2013-05-03 10:42:00,64.0,42.8,30.35,SE,139,12.0,20.0,46,0.00,,,0.00,722.0,meteohub,2013-05-03 17:42:00,
2013-05-03 10:47:00,64.2,43.5,30.34,ENE,69,10.0,20.0,47,0.00,,,0.00,735.0,meteohub,2013-05-03 17:47:00,
2013-05-03 10:52:00,64.8,41.7,30.34,ENE,71,11.0,20.0,43,0.00,,,0.00,744.0,meteohub,2013-05-03 17:52:00,
2013-05-03 10:57:00,65.5,41.7,30.34,East,80,10.0,20.0,42,0.00,,,0.00,752.0,meteohub,2013-05-03 17:57:00,
2013-05-03 11:02:00,66.0,41.7,30.33,East,96,4.0,18.0,41,0.00,,,0.00,759.0,meteohub,2013-05-03 18:02:00,
2013-05-03 11:07:00,66.0,41.0,30.33,SE,132,2.0,18.0,40,0.00,,,0.00,770.0,meteohub,2013-05-03 18:07:00,
2013-05-03 11:12:00,66.7,41.0,30.33,East,94,12.0,20.0,39,0.00,,,0.00,777.0,meteohub,2013-05-03 18:12:00,
2013-05-03 11:17:00,67.5,38.1,30.33,ESE,117,9.0,20.0,34,0.00,,,0.00,786.0,meteohub,2013-05-03 18:17:00,
2013-05-03 11:22:00,67.8,40.6,30.33,East,80,10.0,20.0,37,0.00,,,0.00,793.0,meteohub,2013-05-03 18:22:00,
2013-05-03 11:27:00,67.5,38.8,30.32,SE,124,7.0,20.0,35,0.00,,,0.00,798.0,meteohub,2013-05-03 18:27:00,
2013-05-03 11:32:00,67.8,38.5,30.32,East,83,12.0,20.0,34,0.00,,,0.00,805.0,meteohub,2013-05-03 18:32:00,
2013-05-03 11:37:00,68.4,40.3,30.32,ENE,61,10.0,20.0,36,0.00,,,0.00,812.0,meteohub,2013-05-03 18:37:00,
2013-05-03 11:42:00,68.5,41.2,30.32,ESE,104,6.0,20.0,37,0.00,,,0.00,817.0,meteohub,2013-05-03 18:42:00,
2013-05-03 11:47:00,68.5,39.0,30.32,ENE,76,11.0,17.0,34,0.00,,,0.00,821.0,meteohub,2013-05-03 18:47:00,
2013-05-03 11:52:00,68.9,38.7,30.32,ENE,78,7.0,17.0,33,0.00,,,0.00,828.0,meteohub,2013-05-03 18:52:00,
2013-05-03 11:57:00,69.1,37.9,30.32,East,85,6.0,16.0,32,0.00,,,0.00,831.0,meteohub,2013-05-03 18:57:00,
2013-05-03 12:02:00,69.3,39.7,30.31,ENE,76,7.0,16.0,34,0.00,,,0.00,837.0,meteohub,2013-05-03 19:02:00,
2013-05-03 12:07:00,69.4,38.3,30.31,East,86,7.0,16.0,32,0.00,,,0.00,840.0,meteohub,2013-05-03 19:07:00,
2013-05-03 12:12:00,69.4,37.4,30.32,East,94,4.0,16.0,31,0.00,,,0.00,842.0,meteohub,2013-05-03 19:12:00,
2013-05-03 12:17:00,69.8,41.7,30.31,East,88,5.0,15.0,36,0.00,,,0.00,847.0,meteohub,2013-05-03 19:17:00,
2013-05-03 12:22:00,70.0,37.9,30.31,ENE,73,10.0,15.0,31,0.00,,,0.00,849.0,meteohub,2013-05-03 19:22:00,
2013-05-03 12:27:00,70.3,37.4,30.31,ENE,67,5.0,13.0,30,0.00,,,0.00,853.0,meteohub,2013-05-03 19:27:00,
2013-05-03 12:32:00,70.9,37.0,30.31,ENE,69,6.0,13.0,29,0.00,,,0.00,856.0,meteohub,2013-05-03 19:32:00,
2013-05-03 12:37:00,70.9,37.0,30.30,East,80,5.0,13.0,29,0.00,,,0.00,858.0,meteohub,2013-05-03 19:37:00,
2013-05-03 12:42:00,71.1,38.1,30.30,East,81,11.0,12.0,30,0.00,,,0.00,860.0,meteohub,2013-05-03 19:42:00,
2013-05-03 12:47:00,70.9,37.0,30.30,ESE,123,7.0,13.0,29,0.00,,,0.00,861.0,meteohub,2013-05-03 19:47:00,
2013-05-03 12:52:00,71.1,37.2,30.29,ESE,103,7.0,13.0,29,0.00,,,0.00,863.0,meteohub,2013-05-03 19:52:00,
2013-05-03 12:57:00,71.4,37.6,30.29,ENE,77,6.0,13.0,29,0.00,,,0.00,865.0,meteohub,2013-05-03 19:57:00,
2013-05-03 13:02:00,71.8,37.8,30.29,East,83,4.0,12.0,29,0.00,,,0.00,865.0,meteohub,2013-05-03 20:02:00,
2013-05-03 13:07:00,72.1,37.2,30.28,ENE,78,10.0,11.0,28,0.00,,,0.00,870.0,meteohub,2013-05-03 20:07:00,
2013-05-03 13:12:00,72.5,36.7,30.28,East,94,6.0,13.0,27,0.00,,,0.00,870.0,meteohub,2013-05-03 20:12:00,
2013-05-03 13:17:00,72.3,37.4,30.27,ESE,119,11.0,13.0,28,0.00,,,0.00,886.0,meteohub,2013-05-03 20:17:00,
2013-05-03 13:22:00,72.5,37.6,30.28,ESE,113,13.0,13.0,28,0.00,,,0.00,860.0,meteohub,2013-05-03 20:22:00,
2013-05-03 13:27:00,72.5,36.7,30.28,ESE,122,12.0,18.0,27,0.00,,,0.00,802.0,meteohub,2013-05-03 20:27:00,
2013-05-03 13:32:00,72.9,36.9,30.27,SE,142,4.0,18.0,27,0.00,,,0.00,765.0,meteohub,2013-05-03 20:32:00,
2013-05-03 13:37:00,73.2,38.1,30.27,East,84,6.0,16.0,28,0.00,,,0.00,812.0,meteohub,2013-05-03 20:37:00,
2013-05-03 13:42:00,73.0,37.9,30.27,SSE,160,4.0,15.0,28,0.00,,,0.00,928.0,meteohub,2013-05-03 20:42:00,
2013-05-03 13:47:00,73.2,36.3,30.27,ENE,69,11.0,15.0,26,0.00,,,0.00,902.0,meteohub,2013-05-03 20:47:00,
2013-05-03 13:52:00,73.6,36.5,30.26,East,80,9.0,16.0,26,0.00,,,0.00,831.0,meteohub,2013-05-03 20:52:00,
2013-05-03 13:57:00,73.8,37.8,30.26,ESE,113,9.0,16.0,27,0.00,,,0.00,538.0,meteohub,2013-05-03 20:57:00,
2013-05-03 14:02:00,73.9,37.8,30.27,SE,128,1.0,16.0,27,0.00,,,0.00,763.0,meteohub,2013-05-03 21:02:00,
2013-05-03 14:07:00,74.7,37.6,30.26,WNW,283,2.0,12.0,26,0.00,,,0.00,846.0,meteohub,2013-05-03 21:07:00,
2013-05-03 14:12:00,74.7,37.6,30.26,East,88,0.0,11.0,26,0.00,,,0.00,796.0,meteohub,2013-05-03 21:12:00,
2013-05-03 14:17:00,74.7,38.5,30.26,NE,47,4.0,6.0,27,0.00,,,0.00,851.0,meteohub,2013-05-03 21:17:00,
2013-05-03 14:22:00,74.8,36.7,30.26,ESE,120,4.0,6.0,25,0.00,,,0.00,700.0,meteohub,2013-05-03 21:22:00,
2013-05-03 14:27:00,74.7,37.6,30.25,East,83,4.0,6.0,26,0.00,,,0.00,533.0,meteohub,2013-05-03 21:27:00,
2013-05-03 14:32:00,74.7,38.5,30.25,NE,42,3.0,10.0,27,0.00,,,0.00,842.0,meteohub,2013-05-03 21:32:00,
2013-05-03 14:37:00,74.8,37.6,30.25,SW,216,4.0,10.0,26,0.00,,,0.00,831.0,meteohub,2013-05-03 21:37:00,
2013-05-03 14:42:00,75.4,39.0,30.25,SSW,209,8.0,10.0,27,0.00,,,0.00,810.0,meteohub,2013-05-03 21:42:00,
2013-05-03 14:47:00,75.4,38.1,30.24,SW,234,12.0,12.0,26,0.00,,,0.00,796.0,meteohub,2013-05-03 21:47:00,
2013-05-03 14:52:00,75.0,39.7,30.24,SW,215,1.0,12.0,28,0.00,,,0.00,766.0,meteohub,2013-05-03 21:52:00,
2013-05-03 14:57:00,75.4,38.1,30.24,West,281,6.0,12.0,26,0.00,,,0.00,768.0,meteohub,2013-05-03 21:57:00,
2013-05-03 15:02:00,76.3,37.9,30.24,WNW,292,5.0,12.0,25,0.00,,,0.00,754.0,meteohub,2013-05-03 22:02:00,
2013-05-03 15:07:00,77.0,39.6,30.23,WSW,254,3.0,12.0,26,0.00,,,0.00,763.0,meteohub,2013-05-03 22:07:00,
2013-05-03 15:12:00,76.8,38.3,30.23,WSW,242,4.0,12.0,25,0.00,,,0.00,756.0,meteohub,2013-05-03 22:12:00,
2013-05-03 15:17:00,76.6,37.2,30.23,SSW,210,6.0,10.0,24,0.00,,,0.00,745.0,meteohub,2013-05-03 22:17:00,
2013-05-03 15:22:00,75.9,39.6,30.23,WSW,258,6.0,10.0,27,0.00,,,0.00,737.0,meteohub,2013-05-03 22:22:00,
2013-05-03 15:27:00,75.7,38.5,30.23,SSW,202,2.0,10.0,26,0.00,,,0.00,728.0,meteohub,2013-05-03 22:27:00,
2013-05-03 15:32:00,75.9,37.6,30.23,WSW,250,1.0,11.0,25,0.00,,,0.00,715.0,meteohub,2013-05-03 22:32:00,
2013-05-03 15:37:00,76.5,37.0,30.23,North,9,5.0,11.0,24,0.00,,,0.00,707.0,meteohub,2013-05-03 22:37:00,
2013-05-03 15:42:00,76.3,37.9,30.23,WSW,250,4.0,12.0,25,0.00,,,0.00,698.0,meteohub,2013-05-03 22:42:00,
2013-05-03 15:47:00,76.3,37.9,30.22,SW,229,7.0,12.0,25,0.00,,,0.00,687.0,meteohub,2013-05-03 22:47:00,
2013-05-03 15:52:00,75.9,36.5,30.22,WNW,290,5.0,14.0,24,0.00,,,0.00,677.0,meteohub,2013-05-03 22:52:00,
2013-05-03 15:57:00,76.1,37.8,30.22,WNW,291,4.0,14.0,25,0.00,,,0.00,666.0,meteohub,2013-05-03 22:57:00,
2013-05-03 16:02:00,76.5,37.0,30.22,South,190,3.0,12.0,24,0.00,,,0.00,656.0,meteohub,2013-05-03 23:02:00,
2013-05-03 16:07:00,76.3,37.9,30.22,WSW,251,4.0,12.0,25,0.00,,,0.00,645.0,meteohub,2013-05-03 23:07:00,
2013-05-03 16:12:00,76.8,37.2,30.22,WSW,252,7.0,12.0,24,0.00,,,0.00,635.0,meteohub,2013-05-03 23:12:00,
2013-05-03 16:17:00,76.8,38.3,30.22,SW,227,3.0,12.0,25,0.00,,,0.00,621.0,meteohub,2013-05-03 23:17:00,
2013-05-03 16:22:00,76.8,36.1,30.22,SW,224,2.0,11.0,23,0.00,,,0.00,610.0,meteohub,2013-05-03 23:22:00,
2013-05-03 16:27:00,76.6,36.1,30.22,SW,234,6.0,11.0,23,0.00,,,0.00,596.0,meteohub,2013-05-03 23:27:00,
2013-05-03 16:32:00,76.8,37.2,30.22,West,279,3.0,9.0,24,0.00,,,0.00,582.0,meteohub,2013-05-03 23:32:00,
2013-05-03 16:37:00,76.8,36.1,30.21,SW,225,2.0,9.0,23,0.00,,,0.00,571.0,meteohub,2013-05-03 23:37:00,
2013-05-03 16:42:00,76.5,36.0,30.21,SSW,210,6.0,9.0,23,0.00,,,0.00,559.0,meteohub,2013-05-03 23:42:00,
2013-05-03 16:47:00,76.6,36.1,30.21,West,271,3.0,9.0,23,0.00,,,0.00,547.0,meteohub,2013-05-03 23:47:00,
2013-05-03 16:53:00,77.0,38.5,30.21,WSW,237,2.0,9.0,25,0.00,,,0.00,533.0,meteohub,2013-05-03 23:53:00,
2013-05-03 16:58:00,77.5,36.9,30.21,West,262,2.0,9.0,23,0.00,,,0.00,519.0,meteohub,2013-05-03 23:58:00,
2013-05-03 17:03:00,77.5,36.9,30.21,West,260,3.0,8.0,23,0.00,,,0.00,504.0,meteohub,2013-05-04 00:03:00,
2013-05-03 17:08:00,77.7,37.0,30.21,WNW,286,6.0,9.0,23,0.00,,,0.00,492.0,meteohub,2013-05-04 00:08:00,
2013-05-03 17:13:00,77.4,37.8,30.21,WNW,292,4.0,11.0,24,0.00,,,0.00,478.0,meteohub,2013-05-04 00:13:00,
2013-05-03 17:18:00,77.5,36.9,30.21,West,271,7.0,11.0,23,0.00,,,0.00,464.0,meteohub,2013-05-04 00:18:00,
2013-05-03 17:23:00,77.5,36.9,30.20,West,270,6.0,11.0,23,0.00,,,0.00,452.0,meteohub,2013-05-04 00:23:00,
2013-05-03 17:28:00,77.5,36.9,30.21,West,271,7.0,10.0,23,0.00,,,0.00,438.0,meteohub,2013-05-04 00:28:00,
2013-05-03 17:33:00,77.4,37.8,30.20,WNW,283,3.0,11.0,24,0.00,,,0.00,424.0,meteohub,2013-05-04 00:33:00,
2013-05-03 17:38:00,77.2,37.6,30.20,West,277,2.0,11.0,24,0.00,,,0.00,411.0,meteohub,2013-05-04 00:38:00,
2013-05-03 17:43:00,77.0,37.4,30.20,NW,306,7.0,11.0,24,0.00,,,0.00,397.0,meteohub,2013-05-04 00:43:00,
2013-05-03 17:48:00,76.8,37.2,30.20,WNW,284,4.0,10.0,24,0.00,,,0.00,383.0,meteohub,2013-05-04 00:48:00,
2013-05-03 17:53:00,76.8,38.3,30.20,West,260,7.0,10.0,25,0.00,,,0.00,369.0,meteohub,2013-05-04 00:53:00,
2013-05-03 17:58:00,76.5,37.9,30.20,NNE,25,5.0,12.0,25,0.00,,,0.00,355.0,meteohub,2013-05-04 00:58:00,
2013-05-03 18:03:00,76.1,38.7,30.20,NW,314,6.0,12.0,26,0.00,,,0.00,341.0,meteohub,2013-05-04 01:03:00,
2013-05-03 18:08:00,75.7,41.2,30.20,WSW,246,2.0,12.0,29,0.00,,,0.00,327.0,meteohub,2013-05-04 01:08:00,
2013-05-03 18:13:00,74.8,39.6,30.20,SW,236,4.0,11.0,28,0.00,,,0.00,311.0,meteohub,2013-05-04 01:13:00,
2013-05-03 18:18:00,73.2,43.2,30.20,SW,228,11.0,11.0,34,0.00,,,0.00,297.0,meteohub,2013-05-04 01:18:00,
2013-05-03 18:23:00,72.1,42.3,30.20,West,275,4.0,13.0,34,0.00,,,0.00,288.0,meteohub,2013-05-04 01:23:00,
2013-05-03 18:28:00,71.8,36.0,30.20,WNW,288,3.0,13.0,27,0.00,,,0.00,269.0,meteohub,2013-05-04 01:28:00,
2013-05-03 18:33:00,72.1,38.1,30.20,WSW,243,6.0,13.0,29,0.00,,,0.00,255.0,meteohub,2013-05-04 01:33:00,
2013-05-03 18:38:00,72.1,40.6,30.21,WSW,240,4.0,13.0,32,0.00,,,0.00,241.0,meteohub,2013-05-04 01:38:00,
2013-05-03 18:43:00,71.8,45.5,30.21,WSW,239,2.0,10.0,39,0.00,,,0.00,225.0,meteohub,2013-05-04 01:43:00,
2013-05-03 18:48:00,71.2,45.0,30.21,WSW,240,0.0,7.0,39,0.00,,,0.00,33.0,meteohub,2013-05-04 01:48:00,
2013-05-03 18:53:00,70.5,45.7,30.21,WSW,244,0.0,6.0,41,0.00,,,0.00,30.0,meteohub,2013-05-04 01:53:00,
2013-05-03 18:58:00,70.0,46.4,30.21,WSW,244,1.0,5.0,43,0.00,,,0.00,28.0,meteohub,2013-05-04 01:58:00,
2013-05-03 19:03:00,68.5,48.6,30.22,WSW,244,0.0,3.0,49,0.00,,,0.00,26.0,meteohub,2013-05-04 02:03:00,
2013-05-03 19:08:00,66.4,47.1,30.22,WSW,244,0.0,3.0,50,0.00,,,0.00,25.0,meteohub,2013-05-04 02:08:00,
2013-05-03 19:13:00,65.5,47.5,30.22,WSW,244,0.0,2.0,52,0.00,,,0.00,23.0,meteohub,2013-05-04 02:13:00,
2013-05-03 19:18:00,64.8,46.8,30.22,WSW,244,0.0,1.0,52,0.00,,,0.00,21.0,meteohub,2013-05-04 02:18:00,
2013-05-03 19:23:00,64.2,47.3,30.22,WSW,244,0.0,1.0,54,0.00,,,0.00,19.0,meteohub,2013-05-04 02:23:00,
2013-05-03 19:28:00,63.1,47.1,30.22,WSW,244,0.0,1.0,56,0.00,,,0.00,18.0,meteohub,2013-05-04 02:28:00,
2013-05-03 19:33:00,63.0,46.9,30.23,WSW,244,0.0,3.0,56,0.00,,,0.00,16.0,meteohub,2013-05-04 02:33:00,
2013-05-03 19:39:00,62.4,46.9,30.23,WSW,244,0.0,3.0,57,0.00,,,0.00,16.0,meteohub,2013-05-04 02:39:00,
2013-05-03 19:44:00,62.1,47.5,30.23,WSW,244,0.0,3.0,59,0.00,,,0.00,14.0,meteohub,2013-05-04 02:44:00,
2013-05-03 19:49:00,61.9,47.8,30.23,WSW,244,0.0,0.0,60,0.00,,,0.00,12.0,meteohub,2013-05-04 02:49:00,
2013-05-03 19:54:00,61.3,47.8,30.23,WSW,244,0.0,2.0,61,0.00,,,0.00,11.0,meteohub,2013-05-04 02:54:00,
2013-05-03 19:59:00,60.4,46.9,30.24,WSW,244,0.0,2.0,61,0.00,,,0.00,11.0,meteohub,2013-05-04 02:59:00,
2013-05-03 20:04:00,60.3,47.7,30.24,WSW,244,0.0,2.0,63,0.00,,,0.00,9.0,meteohub,2013-05-04 03:04:00,
2013-05-03 20:09:00,59.7,47.5,30.24,WSW,244,0.0,1.0,64,0.00,,,0.00,7.0,meteohub,2013-05-04 03:09:00,
2013-05-03 20:14:00,59.5,47.3,30.24,WSW,244,0.0,1.0,64,0.00,,,0.00,5.0,meteohub,2013-05-04 03:14:00,
2013-05-03 20:19:00,58.8,47.5,30.24,WSW,244,0.0,1.0,66,0.00,,,0.00,5.0,meteohub,2013-05-04 03:19:00,
2013-05-03 20:24:00,58.6,46.9,30.24,WSW,244,0.0,2.0,65,0.00,,,0.00,0.0,meteohub,2013-05-04 03:24:00,
2013-05-03 20:29:00,58.3,47.8,30.25,WSW,244,0.0,2.0,68,0.00,,,0.00,0.0,meteohub,2013-05-04 03:29:00,
2013-05-03 20:34:00,57.7,47.3,30.25,WSW,244,0.0,2.0,68,0.00,,,0.00,0.0,meteohub,2013-05-04 03:34:00,
2013-05-03 20:39:00,57.6,47.8,30.25,WSW,244,0.0,1.0,70,0.00,,,0.00,0.0,meteohub,2013-05-04 03:39:00,
2013-05-03 20:44:00,57.2,47.5,30.25,WSW,244,0.0,1.0,70,0.00,,,0.00,0.0,meteohub,2013-05-04 03:44:00,
2013-05-03 20:49:00,57.0,46.9,30.25,WSW,244,0.0,0.0,69,0.00,,,0.00,0.0,meteohub,2013-05-04 03:49:00,
2013-05-03 20:54:00,56.7,46.9,30.25,WSW,244,0.0,0.0,70,0.00,,,0.00,0.0,meteohub,2013-05-04 03:54:00,
2013-05-03 20:59:00,56.5,47.1,30.25,WSW,244,0.0,0.0,71,0.00,,,0.00,0.0,meteohub,2013-05-04 03:59:00,
2013-05-03 21:01:00,56.5,47.1,30.25,WSW,244,0.0,1.0,71,0.00,,,0.00,0.0,meteohub,2013-05-04 04:01:00,
2013-05-03 21:02:00,56.5,47.1,30.25,WSW,244,0.0,1.0,71,0.00,,,0.00,0.0,meteohub,2013-05-04 04:02:00,
2013-05-03 21:03:00,56.3,46.9,30.25,WSW,244,0.0,1.0,71,0.00,,,0.00,0.0,meteohub,2013-05-04 04:03:00,
2013-05-03 21:05:00,55.9,46.8,30.26,WSW,244,0.0,1.0,71,0.00,,,0.00,0.0,meteohub,2013-05-04 04:05:00,
2013-05-03 21:06:00,55.9,46.8,30.26,WSW,244,0.0,1.0,71,0.00,,,0.00,0.0,meteohub,2013-05-04 04:06:00,
2013-05-03 21:11:00,55.8,46.6,30.26,WSW,244,2.0,2.0,71,0.00,,,0.00,0.0,meteohub,2013-05-04 04:11:00,
2013-05-03 21:16:00,55.4,46.2,30.27,WSW,244,0.0,3.0,71,0.00,,,0.00,0.0,meteohub,2013-05-04 04:16:00,
2013-05-03 21:21:00,55.2,46.0,30.27,WSW,244,0.0,3.0,71,0.00,,,0.00,0.0,meteohub,2013-05-04 04:21:00,
2013-05-03 21:26:00,54.9,46.4,30.27,WSW,244,0.0,3.0,73,0.00,,,0.00,0.0,meteohub,2013-05-04 04:26:00,
2013-05-03 21:31:00,54.5,46.0,30.27,WSW,244,0.0,1.0,73,0.00,,,0.00,0.0,meteohub,2013-05-04 04:31:00,
2013-05-03 21:36:00,54.1,45.7,30.27,WSW,244,0.0,4.0,73,0.00,,,0.00,0.0,meteohub,2013-05-04 04:36:00,
2013-05-03 21:41:00,54.0,45.5,30.27,WSW,244,1.0,4.0,73,0.00,,,0.00,0.0,meteohub,2013-05-04 04:41:00,
2013-05-03 21:46:00,53.8,45.7,30.27,WSW,244,0.0,4.0,74,0.00,,,0.00,0.0,meteohub,2013-05-04 04:46:00,
2013-05-03 21:51:00,53.4,45.3,30.27,WSW,244,1.0,3.0,74,0.00,,,0.00,0.0,meteohub,2013-05-04 04:51:00,
2013-05-03 21:56:00,53.2,45.5,30.28,WSW,244,2.0,2.0,75,0.00,,,0.00,0.0,meteohub,2013-05-04 04:56:00,
2013-05-03 22:01:00,53.1,45.7,30.28,WSW,244,1.0,3.0,76,0.00,,,0.00,0.0,meteohub,2013-05-04 05:01:00,
2013-05-03 22:06:00,52.9,45.5,30.28,WSW,244,0.0,3.0,76,0.00,,,0.00,0.0,meteohub,2013-05-04 05:06:00,
2013-05-03 22:11:00,52.9,45.9,30.28,WSW,244,0.0,3.0,77,0.00,,,0.00,0.0,meteohub,2013-05-04 05:11:00,
2013-05-03 22:16:00,52.5,45.5,30.28,WSW,244,0.0,2.0,77,0.00,,,0.00,0.0,meteohub,2013-05-04 05:16:00,
2013-05-03 22:21:00,52.3,45.3,30.28,WSW,244,0.0,2.0,77,0.00,,,0.00,0.0,meteohub,2013-05-04 05:21:00,
2013-05-03 22:26:00,52.2,45.1,30.29,WSW,244,0.0,2.0,77,0.00,,,0.00,0.0,meteohub,2013-05-04 05:26:00,
2013-05-03 22:32:00,52.0,45.3,30.29,WSW,244,2.0,2.0,78,0.00,,,0.00,0.0,meteohub,2013-05-04 05:32:00,
2013-05-03 22:37:00,51.6,45.3,30.29,WSW,244,0.0,4.0,79,0.00,,,0.00,0.0,meteohub,2013-05-04 05:37:00,
2013-05-03 22:42:00,51.4,45.1,30.29,WSW,244,2.0,4.0,79,0.00,,,0.00,0.0,meteohub,2013-05-04 05:42:00,
2013-05-03 22:47:00,51.1,44.8,30.29,WSW,244,0.0,4.0,79,0.00,,,0.00,0.0,meteohub,2013-05-04 05:47:00,
2013-05-03 22:52:00,51.1,44.8,30.28,WSW,244,1.0,3.0,79,0.00,,,0.00,0.0,meteohub,2013-05-04 05:52:00,
2013-05-03 22:57:00,50.7,44.8,30.29,WSW,244,2.0,4.0,80,0.00,,,0.00,0.0,meteohub,2013-05-04 05:57:00,
2013-05-03 23:02:00,50.5,44.6,30.29,WSW,244,2.0,4.0,80,0.00,,,0.00,0.0,meteohub,2013-05-04 06:02:00,
2013-05-03 23:07:00,50.5,45.0,30.29,WSW,244,0.0,4.0,81,0.00,,,0.00,0.0,meteohub,2013-05-04 06:07:00,
2013-05-03 23:12:00,50.4,44.8,30.29,WSW,244,1.0,3.0,81,0.00,,,0.00,0.0,meteohub,2013-05-04 06:12:00,
2013-05-03 23:17:00,50.2,44.6,30.29,WSW,244,0.0,3.0,81,0.00,,,0.00,0.0,meteohub,2013-05-04 06:17:00,
2013-05-03 23:22:00,49.8,44.6,30.29,WSW,244,0.0,3.0,82,0.00,,,0.00,0.0,meteohub,2013-05-04 06:22:00,
2013-05-03 23:27:00,49.8,44.6,30.29,WSW,244,0.0,3.0,82,0.00,,,0.00,0.0,meteohub,2013-05-04 06:27:00,
2013-05-03 23:32:00,49.5,44.2,30.29,WSW,244,2.0,3.0,82,0.00,,,0.00,0.0,meteohub,2013-05-04 06:32:00,
2013-05-03 23:37:00,49.5,44.2,30.29,WSW,244,0.0,5.0,82,0.00,,,0.00,0.0,meteohub,2013-05-04 06:37:00,
2013-05-03 23:42:00,49.3,44.1,30.29,WSW,244,0.0,5.0,82,0.00,,,0.00,0.0,meteohub,2013-05-04 06:42:00,
2013-05-03 23:47:00,49.1,43.9,30.30,WSW,244,1.0,5.0,82,0.00,,,0.00,0.0,meteohub,2013-05-04 06:47:00,
2013-05-03 23:52:00,48.9,43.7,30.30,WSW,244,0.0,2.0,82,0.00,,,0.00,0.0,meteohub,2013-05-04 06:52:00,
2013-05-03 23:57:00,48.7,43.5,30.30,WSW,244,0.0,2.0,82,0.00,,,0.00,0.0,meteohub,2013-05-04 06:57:00,